Temp
-1 -3 -4 -3 -4 -4 -3 -2 -4 -3 -2 -1 -1 -2 -2 -2 -2 -2 -0 0 0 0 1 1 1 1 1 1 2 3 5 4 7 8 7 8 8 9
-2 -3 -3 -3 -3 -3 -3 -4 -4 -3 -2 -2 -2 -2 -3 -3 -2 -2 -2 -1 -1 -1 -0 0 0 1 1 1 1 2 3 4 4 6 7 8 9 8
-3 -3 -3 -3 -3 -4 -4 -4 -4 -4 -4 -3 -3 -3 -4 -3 -3 -3 -3 -3 -2 -2 -1 -1 -1 -1 -1 0 1 1 1 2 2 3 5 6 9 7
-3 -3 -4 -4 -4 -4 -5 -5 -5 -5 -5 -4 -4 -4 -4 -4 -4 -4 -4 -3 -3 -3 -2 -2 -1 -1 -1 -1 -0 1 1 1 2 2 3 4 5 6
-4 -4 -5 -5 -5 -6 -6 -6 -6 -6 -6 -6 -5 -5 -5 -5 -5 -5 -5 -5 -4 -4 -3 -3 -2 -2 -1 -1 -0 -0 1 1 2 2 3 3 4 4
-5 -5 -6 -6 -7 -7 -7 -8 -7 -7 -7 -7 -7 -6 -6 -6 -6 -6 -5 -5 -5 -5 -5 -4 -4 -3 -2 -2 -1 -0 0 1 1 2 2 3 3 4
-6 -6 -7 -7 -7 -7 -8 -8 -8 -8 -8 -8 -8 -7 -7 -7 -7 -6 -6 -6 -6 -6 -6 -6 -5 -5 -3 -2 -2 -1 -0 0 1 1 1 2 3 3
-8 -8 -8 -7 -7 -7 -8 -8 -9 -9 -9 -9 -8 -8 -7 -7 -7 -8 -7 -7 -7 -7 -7 -7 -7 -6 -5 -4 -3 -1 -1 -0 0 1 1 1 2 2
-10 -10 -10 -10 -9 -10 -10 -9 -9 -10 -10 -10 -10 -9 -9 -8 -8 -8 -8 -8 -7 -7 -7 -7 -7 -7 -7 -6 -4 -3 -2 -1 -0 -0 0 1 1 2
-10 -10 -10 -10 -10 -10 -10 -10 -10 -10 -10 -10 -10 -10 -9 -9 -9 -9 -9 -8 -8 -8 -8 -8 -8 -7 -7 -7 -6 -5 -4 -3 -2 -1 -0 0 0 1
-10 -11 -11 -10 -10 -10 -10 -10 -10 -10 -9 -9 -9 -9 -9 -9 -9 -9 -9 -9 -8 -8 -8 -8 -8 -8 -8 -7 -6 -5 -5 -4 -3 -3 -1 -1 -0 0
-11 -11 -10 -10 -10 -10 -10 -10 -10 -10 -10 -10 -9 -9 -9 -9 -9 -9 -9 -9 -8 -8 -8 -8 -7 -7 -7 -7 -6 -5 -5 -4 -4 -3 -2 -1 -1 -0
-11 -10 -10 -10 -10 -10 -11 -11 -11 -11 -11 -10 -10 -9 -9 -9 -9 -9 -9 -9 -8 -8 -7 -8 -7 -7 -7 -7 -7 -6 -6 -4 -4 -4 -4 -3 -2 -2
-11 -10 -10 -10 -11 -11 -11 -11 -10 -10 -10 -10 -10 -10 -9 -9 -9 -9 -9 -9 -9 -9 -8 -8 -8 -7 -7 -7 -6 -7 -6 -6 -5 -4 -4 -4 -3 -2
-11 -11 -11 -11 -11 -11 -11 -10 -10 -10 -9 -9 -9 -9 -9 -9 -9 -8 -9 -9 -9 -8 -8 -8 -8 -8 -8 -7 -7 -7 -7 -6 -6 -5 -5 -5 -4 -3
-11 -11 -11 -11 -11 -12 -11 -10 -10 -10 -9 -9 -8 -8 -8 -8 -9 -9 -8 -8 -8 -8 -8 -8 -8 -8 -8 -8 -8 -7 -7 -7 -6 -6 -6 -5 -4 -3
-12 -12 -11 -11 -12 -12 -12 -11 -10 -10 -9 -9 -8 -8 -8 -8 -9 -9 -9 -8 -8 -8 -8 -8 -8 -8 -8 -7 -7 -7 -7 -7 -7 -7 -6 -5 -5 -4
-12 -12 -12 -12 -12 -13 -13 -13 -11 -10 -10 -9 -9 -8 -8 -8 -8 -8 -9 -9 -8 -8 -8 -8 -8 -8 -8 -8 -8 -8 -7 -7 -7 -7 -6 -6 -6 -5
-12 -13 -12 -12 -13 -13 -13 -13 -12 -11 -10 -10 -9 -8 -8 -8 -8 -8 -8 -8 -8 -8 -8 -8 -8 -8 -8 -7 -8 -8 -8 -8 -7 -7 -7 -6 -6 -5
-13 -13 -13 -13 -13 -13 -13 -12 -12 -12 -11 -10 -10 -9 -9 -8 -8 -8 -8 -8 -8 -8 -8 -8 -8 -8 -8 -8 -8 -8 -7 -8 -7 -8 -7 -7 -6 -5
-13 -13 -13 -13 -13 -13 -13 -13 -12 -12 -12 -11 -11 -10 -10 -9 -9 -9 -8 -8 -8 -9 -9 -9 -8 -9 -8 -8 -9 -9 -8 -8 -9 -9 -8 -8 -8 -7
-14 -14 -13 -13 -13 -13 -13 -13 -13 -12 -12 -12 -12 -11 -11 -10 -10 -10 -9 -9 -9 -9 -9 -9 -9 -9 -9 -9 -10 -9 -10 -10 -10 -9 -9 -9 -9 -9
-14 -14 -14 -14 -13 -13 -13 -13 -13 -13 -12 -12 -12 -12 -12 -11 -11 -11 -11 -10 -10 -10 -10 -10 -10 -10 -10 -9 -11 -10 -10 -10 -10 -10 -10 -10 -9 -9
Height
1454 1452 1453 1452 1451 1454 1454 1454 1453 1452 1451 1452 1451 1452 1451 1450 1450 1451 1451 1450 1451 1452 1454 1454 1454 1455 1454 1453 1452 1449 1449 1447 1446 1447 1449 1451 1450 1452
1453 1452 1451 1451 1450 1448 1448 1451 1448 1449 1445 1448 1447 1446 1445 1444 1444 1443 1444 1443 1444 1444 1446 1447 1447 1448 1447 1446 1445 1443 1442 1440 1439 1438 1438 1437 1439 1446
1451 1450 1449 1447 1444 1443 1445 1444 1442 1443 1440 1437 1439 1440 1439 1438 1437 1436 1435 1435 1435 1435 1436 1438 1439 1440 1438 1440 1440 1438 1436 1434 1435 1434 1433 1432 1434 1440
1447 1445 1443 1441 1440 1439 1437 1436 1435 1435 1434 1432 1432 1432 1430 1429 1428 1427 1427 1426 1426 1427 1427 1428 1429 1430 1431 1431 1432 1432 1431 1431 1431 1432 1432 1432 1432 1434
1441 1438 1437 1435 1433 1432 1430 1429 1428 1427 1426 1425 1422 1422 1421 1420 1418 1418 1417 1417 1416 1416 1416 1416 1417 1418 1419 1420 1423 1424 1425 1425 1425 1426 1427 1429 1429 1426
1434 1432 1430 1428 1426 1424 1422 1420 1419 1417 1416 1414 1412 1410 1410 1410 1408 1408 1406 1407 1405 1406 1405 1405 1406 1406 1407 1409 1412 1414 1416 1418 1419 1420 1420 1421 1422 1422
1428 1425 1422 1419 1417 1415 1412 1411 1410 1409 1407 1405 1403 1401 1400 1399 1398 1399 1396 1396 1394 1395 1394 1393 1395 1394 1395 1397 1399 1402 1405 1408 1411 1412 1414 1414 1415 1417
1419 1415 1412 1409 1406 1404 1402 1400 1400 1398 1397 1395 1393 1391 1391 1391 1391 1390 1389 1388 1385 1388 1386 1383 1385 1383 1385 1386 1388 1392 1395 1398 1400 1403 1405 1407 1408 1410
1410 1407 1404 1401 1398 1396 1393 1391 1389 1387 1386 1386 1383 1382 1381 1382 1382 1381 1380 1380 1379 1380 1380 1377 1378 1377 1377 1378 1379 1381 1384 1387 1390 1393 1396 1398 1400 1402
1402 1399 1396 1393 1391 1388 1386 1384 1382 1380 1378 1376 1373 1372 1372 1372 1372 1372 1373 1372 1372 1372 1373 1369 1372 1370 1370 1371 1371 1373 1375 1378 1380 1383 1387 1390 1392 1394
1395 1392 1390 1387 1384 1382 1379 1376 1373 1370 1369 1366 1364 1363 1363 1362 1363 1364 1363 1364 1363 1364 1366 1364 1365 1363 1363 1362 1363 1365 1368 1370 1373 1375 1379 1381 1384 1386
1389 1386 1383 1380 1378 1376 1373 1369 1364 1362 1360 1358 1356 1355 1354 1353 1353 1353 1355 1355 1356 1357 1358 1359 1359 1360 1358 1356 1355 1357 1359 1362 1366 1369 1372 1375 1377 1379
1384 1381 1377 1374 1371 1368 1364 1360 1356 1353 1351 1349 1348 1347 1346 1344 1344 1344 1345 1347 1349 1350 1352 1352 1354 1354 1354 1354 1353 1353 1354 1355 1359 1363 1366 1368 1371 1373
1379 1376 1372 1368 1364 1360 1356 1353 1349 1346 1344 1342 1341 1339 1338 1338 1337 1337 1338 1340 1341 1343 1345 1346 1347 1349 1349 1350 1350 1350 1351 1351 1353 1357 1360 1363 1365 1367
1375 1371 1367 1363 1358 1354 1351 1348 1346 1342 1340 1338 1336 1335 1333 1332 1331 1331 1331 1332 1333 1335 1337 1339 1341 1344 1345 1345 1346 1347 1348 1348 1349 1352 1354 1357 1359 1361
1371 1367 1363 1359 1355 1351 1348 1346 1343 1340 1337 1335 1333 1331 1329 1327 1325 1325 1326 1327 1328 1329 1330 1333 1335 1338 1339 1341 1342 1342 1344 1345 1345 1347 1349 1351 1353 1355
1368 1365 1361 1357 1354 1350 1347 1344 1341 1339 1335 1333 1331 1329 1327 1325 1323 1322 1323 1324 1325 1326 1327 1329 1331 1333 1334 1336 1336 1337 1339 1340 1340 1342 1343 1345 1347 1349
1366 1363 1360 1357 1354 1351 1347 1343 1340 1338 1335 1332 1330 1328 1326 1324 1323 1322 1321 1322 1323 1324 1325 1326 1327 1329 1330 1330 1331 1331 1333 1334 1336 1336 1338 1339 1341 1343
1366 1363 1361 1358 1355 1352 1348 1344 1341 1338 1335 1333 1331 1329 1326 1324 1322 1321 1321 1321 1322 1322 1323 1323 1324 1325 1326 1326 1325 1326 1327 1328 1329 1331 1332 1334 1336 1337
1366 1364 1362 1359 1357 1353 1349 1346 1343 1339 1336 1333 1331 1329 1327 1325 1324 1322 1321 1321 1321 1320 1320 1320 1321 1322 1323 1324 1323 1322 1322 1323 1324 1325 1327 1328 1330 1332
1368 1365 1363 1361 1358 1355 1351 1348 1345 1341 1338 1335 1332 1330 1328 1326 1325 1324 1323 1322 1321 1321 1321 1320 1320 1320 1321 1321 1321 1320 1320 1320 1321 1322 1323 1325 1326 1328
1369 1366 1364 1362 1359 1356 1353 1350 1347 1343 1340 1337 1334 1331 1329 1328 1327 1325 1324 1323 1322 1321 1321 1320 1320 1320 1320 1320 1320 1319 1319 1319 1320 1320 1321 1323 1325 1327
1370 1367 1365 1363 1360 1358 1355 1352 1349 1346 1342 1340 1337 1334 1331 1330 1329 1327 1326 1324 1323 1322 1322 1321 1321 1320 1320 1319 1320 1320 1320 1319 1320 1320 1321 1322 1323 1324
Wind_Speed
21 24 19 17 16 15 19 20 14 21 25 23 24 20 19 18 17 17 20 25 24 23 23 16 12 15 13 13 16 17 22 27 40 38 28 23 28 38
14 12 11 13 16 16 16 18 16 21 29 26 25 24 23 23 21 21 20 25 27 25 23 21 23 19 18 17 14 17 18 18 25 40 41 37 27 25
16 17 19 21 22 21 19 19 20 21 25 29 25 23 25 24 23 22 22 24 24 30 32 28 23 31 26 18 18 16 18 18 15 20 31 31 41 32
22 23 23 22 22 23 23 21 19 20 23 28 27 25 25 24 22 21 22 23 23 25 33 36 35 32 29 31 25 21 19 19 18 17 18 19 25 31
27 24 22 22 23 22 24 23 24 25 26 28 31 28 28 26 28 29 28 29 30 34 38 39 38 38 36 33 32 31 25 23 23 21 24 22 21 22
25 26 27 28 28 27 26 25 25 25 25 27 29 30 28 28 29 30 31 29 31 31 34 38 39 39 39 38 37 35 35 31 28 26 26 29 25 23
28 30 32 32 33 32 27 24 23 25 25 26 27 27 27 25 26 26 29 28 29 27 28 31 30 31 37 38 38 37 38 36 32 30 28 27 27 27
28 31 31 31 29 27 25 23 23 24 25 25 26 27 27 26 25 25 25 25 29 22 26 28 26 29 29 30 35 35 36 35 34 31 29 29 29 29
27 26 25 24 23 20 20 22 23 24 26 27 29 30 30 26 24 24 24 24 25 21 21 24 22 23 20 21 26 28 32 34 34 34 30 29 29 31
24 24 21 20 19 18 20 21 22 23 24 25 27 28 27 26 27 28 27 26 25 24 21 26 20 23 20 20 24 29 27 28 31 33 33 31 30 31
22 18 18 20 19 19 20 24 26 26 24 25 24 25 25 26 25 24 27 27 26 24 21 23 20 23 22 25 27 30 33 32 27 26 29 30 30 31
19 19 20 18 19 18 23 26 26 24 23 20 21 23 24 24 26 28 29 25 24 21 20 21 18 16 15 14 17 21 28 37 32 25 23 24 25 27
20 21 19 18 20 26 25 21 21 21 20 20 20 20 21 21 20 22 26 30 26 24 19 15 15 15 15 15 13 7 10 26 35 28 19 18 21 23
19 17 17 23 25 23 17 15 16 17 16 17 17 16 17 19 19 19 22 24 25 27 25 20 21 19 17 16 15 11 11 9 23 27 22 20 18 16
13 17 19 19 17 14 12 12 13 12 12 12 12 13 15 16 17 18 17 19 20 21 25 24 27 22 19 18 15 13 10 14 13 24 21 21 21 19
16 16 15 13 13 12 9 8 9 10 9 9 10 10 10 11 10 12 14 14 16 16 17 19 22 23 24 21 19 19 16 11 11 19 21 21 23 24
11 11 12 14 15 15 12 8 10 12 10 8 7 8 8 8 5 6 10 11 13 11 13 14 14 16 17 18 20 19 18 18 17 19 23 25 26 25
9 10 12 15 17 17 16 14 12 12 13 10 9 10 8 6 5 2 5 8 9 10 12 13 13 14 17 21 21 21 19 17 16 19 21 23 20 25
10 12 14 15 15 15 18 18 16 14 12 12 10 10 9 9 5 2 2 2 4 5 7 9 12 13 13 13 13 12 18 18 20 21 21 21 20 21
13 15 15 16 16 17 18 18 18 17 14 12 11 10 9 8 7 6 3 1 2 4 4 5 5 6 7 6 7 9 12 14 15 15 17 19 21 21
13 14 15 16 16 17 17 16 16 17 16 14 12 11 9 8 5 4 4 2 2 2 2 2 3 5 6 6 6 6 6 8 11 13 15 14 14 13
13 14 14 15 15 16 17 17 16 16 17 16 14 13 10 9 8 7 5 3 2 1 2 2 2 3 4 5 5 5 4 4 6 8 10 11 8 4
14 13 13 14 14 15 16 16 17 16 16 16 17 16 12 9 8 7 6 5 5 4 3 1 0 2 3 5 6 6 5 5 5 5 6 8 8 8
Wind_Direction
305 319 331 324 321 311 305 298 274 284 282 282 285 284 284 282 278 277 269 261 264 261 254 244 236 233 234 253 270 270 272 259 250 252 250 243 246 240
332 325 313 309 303 297 287 271 265 266 274 275 274 275 277 279 274 272 266 262 262 263 262 259 244 243 248 254 268 269 276 288 268 252 258 257 265 259
312 306 300 298 295 291 279 275 273 269 271 277 274 273 271 272 270 267 262 263 262 261 262 257 253 252 252 255 256 262 267 276 285 266 249 260 250 259
309 305 300 292 285 283 284 282 277 274 272 273 273 270 269 272 268 264 261 260 258 258 260 262 259 255 252 256 258 259 257 262 266 260 259 256 266 250
309 305 300 296 292 289 285 282 279 276 272 270 271 270 267 264 266 265 262 260 260 260 263 264 264 260 258 252 250 253 254 256 259 267 259 262 253 250
303 300 296 293 291 291 288 283 279 275 272 269 269 270 266 264 263 264 263 261 262 263 264 264 264 265 260 254 250 245 248 252 256 258 264 266 256 253
297 295 294 293 294 292 285 279 275 273 272 270 269 269 267 263 257 261 263 266 265 264 265 263 262 262 258 256 251 249 246 246 249 249 251 257 253 248
297 296 296 300 299 294 287 280 272 267 268 267 267 265 265 263 262 259 262 264 268 266 264 266 262 261 259 255 252 249 246 244 241 242 237 243 248 247
297 299 300 298 297 290 286 286 282 274 265 264 265 263 265 263 263 259 257 258 262 265 265 264 258 262 257 252 248 241 240 239 238 236 237 240 243 247
303 303 296 297 293 293 290 289 287 280 272 270 265 266 265 264 259 257 256 261 263 261 258 264 264 261 260 251 244 233 230 232 233 234 236 239 240 243
306 299 298 297 296 300 296 298 292 285 282 280 276 274 273 272 263 257 252 249 256 259 259 262 266 268 263 264 255 245 234 232 228 225 228 231 237 244
307 304 307 307 304 302 297 296 290 285 281 279 272 276 273 270 263 255 250 246 247 257 258 251 260 262 272 277 269 254 242 231 231 222 227 228 235 242
309 308 311 311 298 303 303 295 289 291 285 279 274 272 269 267 262 251 248 245 244 246 251 244 255 253 249 262 279 262 267 230 231 228 230 224 230 238
310 319 315 306 305 311 311 305 303 301 294 289 283 276 266 264 261 251 243 244 245 249 248 255 252 249 248 257 259 271 268 259 226 222 217 214 223 235
324 307 314 315 322 327 315 315 318 315 308 303 296 290 284 282 270 262 257 252 250 250 247 249 246 250 251 254 258 259 263 260 239 219 229 228 236 245
324 321 330 343 355 350 342 330 342 347 331 319 318 317 322 312 275 251 246 249 249 251 244 243 245 246 252 254 252 256 254 241 250 246 246 250 249 251
330 333 358 11 14 14 8 5 10 11 4 358 350 337 327 333 310 243 231 236 240 241 245 246 240 242 250 256 260 257 253 252 252 252 251 253 255 253
352 15 20 23 21 15 12 16 17 22 21 20 14 12 3 340 317 325 239 228 237 244 246 249 247 247 256 264 253 253 254 250 246 255 253 253 252 254
35 33 29 26 25 20 22 22 19 19 18 20 22 22 25 30 23 288 259 241 247 249 250 250 255 249 243 246 252 249 245 250 250 252 251 247 242 243
41 37 34 30 28 27 25 23 23 22 23 21 19 20 22 30 40 59 78 201 234 244 241 228 214 209 217 232 227 250 245 243 240 239 239 235 240 244
36 36 32 30 28 26 26 24 26 26 25 27 27 28 25 29 28 38 50 84 99 100 126 164 191 198 215 234 236 233 240 235 219 222 226 222 228 238
29 28 25 23 23 23 24 24 26 30 33 34 33 33 32 29 34 38 42 55 84 122 145 150 159 169 195 217 211 212 201 202 215 219 221 211 200 217
21 20 23 23 26 27 27 28 30 31 33 35 36 35 35 36 36 38 44 57 75 81 102 103 182 229 225 202 181 183 176 170 170 179 211 227 234 241